Location: Gorze? G�rny
(49.8500°N, 19.5000°E)
Time: 13:05:17
(UTC+00:00)

CRYOSAT 2 - Pass Details

Date: 13 May 2021
Orbit: 714 x 725 km, 92.0° (Epoch: 22 June)

Event Time Altitude Azimuth Distance (km) Brightness Sun altitude
Exits shadow 19:12:02 - 163° (SSE) 2,620 6.7 -7.8°
Reaches altitude 10° 19:13:03 10° 161° (SSE) 2,212 6.4 -7.9°
Maximum altitude 19:17:54 64° 81° (E) 805 4.5 -8.5°
Drops below altitude 10° 19:22:45 10° 1° (N) 2,224 7.6 -9.1°
Sets 19:25:04 0° 358° (N) 3,148 8.4 -9.4°
